Theta_e
303 302 302 302 302 302 301 301 300 300 300 300 300 302 307 309 309 310 310 310 310 308 309 310 310 309 309 309 309 309 309 308 308 308 309 308 308 308 308 308 308 308 308 309 309 309 310 310 310 312 314 314 314 314 315 314 314 315 317 320 323 325 328 327 324 326 328 330 330 329 330 330 328 327 328 326 325 323 322 326 328 321 318 321 319 319 333
302 302 302 302 302 302 301 301 301 300 300 301 300 302 307 309 309 311 310 309 309 308 309 309 308 308 309 308 308 309 309 308 308 308 308 308 308 308 308 308 308 308 308 309 309 309 310 310 311 313 313 313 313 314 314 314 314 314 317 321 322 323 327 330 330 328 325 327 328 326 328 329 327 328 328 327 328 327 325 328 330 324 320 321 320 321 332
302 302 302 302 302 301 301 301 301 301 301 301 301 303 307 308 309 310 310 309 309 308 309 309 308 308 308 307 308 308 309 309 308 308 308 309 308 308 308 308 308 308 308 309 309 309 310 310 311 313 313 312 313 313 313 313 313 314 318 321 320 320 324 329 333 330 325 325 326 324 324 327 328 329 327 327 328 325 325 325 324 325 327 324 322 324 332
301 301 301 301 301 301 301 301 301 302 303 303 302 304 307 308 308 310 310 309 309 309 309 309 308 308 308 307 307 307 308 309 309 308 308 309 309 308 308 309 308 308 308 308 308 309 309 310 312 313 313 312 312 312 312 312 312 314 319 318 317 319 324 327 332 333 330 329 332 332 328 325 324 326 327 327 327 326 327 323 322 331 334 327 330 337 333
301 301 301 301 301 301 301 302 304 304 304 303 303 305 307 307 307 309 309 309 309 309 309 309 309 309 308 308 308 308 308 309 308 308 308 309 309 308 308 309 308 308 308 308 308 308 309 310 310 311 312 311 311 311 312 312 313 315 317 316 315 318 323 326 329 331 331 331 333 334 330 325 324 324 326 327 327 327 326 322 326 340 333 325 339 347 335
303 303 303 303 303 303 304 304 305 306 305 304 305 306 307 306 306 307 308 308 309 308 309 309 309 308 308 308 308 308 308 308 308 308 308 308 309 308 309 309 308 308 308 308 308 309 309 309 310 310 311 311 311 311 312 312 313 314 314 314 314 315 321 324 324 326 328 330 331 331 332 330 328 327 326 327 327 325 324 324 331 340 334 334 349 351 338
306 306 306 306 305 305 305 305 306 306 305 305 306 306 306 306 306 307 307 307 308 308 308 309 309 308 309 309 308 308 308 308 308 308 308 308 308 309 308 308 308 308 308 308 309 309 309 310 310 310 310 310 311 311 312 313 313 312 312 313 313 314 320 323 321 323 327 329 331 331 332 331 331 330 328 328 328 325 324 327 331 337 337 343 355 350 340
307 307 307 306 306 306 306 305 305 305 305 305 306 306 306 305 306 306 306 306 307 308 309 309 309 309 309 309 308 308 308 308 308 308 308 308 308 308 308 308 308 308 308 309 308 309 309 310 310 310 310 311 311 311 311 312 312 310 311 313 313 314 318 320 320 323 327 329 331 331 330 331 330 330 331 330 328 326 325 326 329 334 334 336 346 346 341
309 308 308 307 307 307 306 306 305 305 305 306 307 307 306 306 306 306 306 306 307 308 308 309 309 309 308 308 308 308 308 308 308 308 308 308 309 308 307 308 308 308 308 308 308 308 309 309 309 309 310 310 311 311 311 310 310 310 311 312 313 313 315 316 319 324 326 327 329 330 330 330 328 329 331 332 328 326 326 326 327 334 335 334 338 341 343
310 309 310 309 309 308 308 307 307 306 306 306 307 307 306 306 306 305 305 306 307 307 307 308 309 309 309 308 309 309 308 309 308 308 308 308 308 308 308 308 308 308 308 308 308 309 309 308 308 309 309 309 309 310 310 310 309 309 310 311 312 312 314 315 318 323 326 325 327 329 328 328 328 329 331 333 332 330 327 326 329 334 335 335 338 343 349
311 310 311 310 310 309 308 308 307 307 306 307 307 307 306 306 306 306 305 305 307 307 307 307 308 309 309 309 309 309 308 308 309 309 309 308 308 308 308 308 309 309 309 308 308 308 308 308 308 308 309 309 309 309 309 309 310 309 310 311 312 313 314 315 318 323 324 322 325 329 328 327 331 332 332 333 333 332 328 326 327 331 333 337 344 349 351
312 311 311 311 310 310 309 308 307 307 307 307 307 307 306 305 306 306 305 305 306 306 306 307 308 308 309 309 309 309 308 308 308 309 308 308 308 309 308 309 309 309 309 308 308 308 308 308 308 309 309 309 309 310 309 309 310 310 310 311 311 312 313 315 318 321 323 326 332 333 329 330 333 333 333 334 331 332 332 332 332 333 331 334 342 344 347
312 312 312 311 310 310 309 308 308 307 307 307 307 307 306 305 306 307 306 305 305 305 306 307 308 308 308 309 309 309 309 309 309 308 308 308 308 309 308 309 309 308 308 308 308 308 309 309 309 309 310 310 310 311 310 310 310 310 310 311 311 312 312 315 317 319 324 333 338 335 330 331 332 332 334 334 333 335 334 335 338 341 338 337 338 342 344
312 312 311 311 310 310 309 308 308 308 307 308 308 308 307 305 305 307 306 306 306 306 306 307 307 308 308 309 309 308 308 309 308 309 309 309 308 308 308 308 308 308 308 308 308 309 310 310 310 310 310 311 312 311 311 311 310 310 310 311 311 311 313 315 317 320 323 328 331 331 330 332 333 333 334 332 334 337 336 337 339 342 341 341 339 337 339
312 312 312 311 311 310 309 309 308 308 308 308 308 308 307 306 306 306 306 306 306 306 307 307 307 308 308 309 309 309 308 308 308 308 309 309 308 308 308 308 308 308 308 308 309 310 310 309 310 310 311 312 312 313 313 312 311 311 311 311 311 312 313 315 318 321 321 322 326 329 328 328 331 332 333 331 331 332 335 340 341 340 339 342 342 340 341
312 312 311 311 310 310 309 309 308 308 308 308 308 309 308 307 307 307 307 307 307 307 307 307 307 308 308 308 308 308 309 308 307 308 309 309 309 309 308 308 309 309 309 309 309 310 310 310 310 310 311 312 312 313 313 313 312 311 311 311 312 311 313 314 316 318 319 322 328 329 327 328 330 331 330 331 333 330 334 343 342 338 338 343 344 342 343
312 312 311 310 309 309 310 309 309 309 308 309 309 309 309 308 308 308 308 307 307 307 307 307 308 308 308 308 309 309 309 309 308 308 308 309 309 309 309 309 309 309 309 309 310 310 310 310 310 311 311 311 312 313 314 314 314 313 312 311 311 312 314 314 314 317 320 324 327 327 328 329 328 328 330 331 332 331 341 346 342 337 336 342 343 341 341
311 310 310 309 310 311 311 310 309 309 309 309 309 309 309 309 309 309 309 309 308 308 308 308 308 308 308 308 309 309 309 309 309 308 309 309 309 309 309 309 308 309 310 310 310 310 310 310 311 311 311 312 312 313 315 315 316 316 315 313 312 313 314 314 314 316 318 323 325 324 327 329 326 327 331 331 332 338 346 344 341 335 337 342 340 340 340
309 309 309 310 311 312 311 310 309 309 309 309 309 310 310 310 309 309 309 309 309 308 309 309 309 309 309 309 309 309 309 309 309 309 309 309 310 309 309 309 309 310 311 311 311 310 310 310 311 311 312 312 312 313 315 315 316 316 315 314 314 315 315 315 315 315 316 322 327 326 327 328 325 327 329 329 337 344 341 340 338 335 337 341 339 338 340
308 309 310 311 312 311 310 309 309 309 309 309 309 310 310 310 310 310 309 309 309 309 309 309 309 309 309 309 309 309 309 309 309 309 309 309 309 309 309 310 310 311 311 311 311 311 310 310 311 312 313 313 313 313 314 314 315 315 316 316 315 315 315 314 315 316 317 321 325 328 330 329 324 326 329 330 337 339 337 336 336 334 336 337 336 337 338
309 311 311 312 311 311 310 309 309 309 309 309 309 309 310 310 310 310 310 310 309 309 309 309 309 309 309 309 309 309 309 309 309 309 309 309 309 308 309 310 309 309 311 311 310 310 310 311 311 311 313 313 313 313 314 314 315 315 316 317 318 317 317 318 318 317 318 321 325 330 333 328 323 325 328 328 332 335 333 333 332 331 332 334 334 335 336
311 311 312 312 312 311 310 310 309 309 309 308 308 309 310 310 310 310 310 310 310 309 309 309 309 309 309 309 309 309 309 309 309 309 309 309 309 309 309 310 309 309 309 310 310 311 311 312 311 311 312 312 313 313 313 314 315 315 315 317 318 318 320 322 321 320 320 323 326 328 327 323 320 323 323 324 328 331 330 330 329 328 330 331 331 332 334
312 312 313 313 313 312 312 311 310 310 309 308 308 309 309 310 310 310 310 311 310 310 310 309 309 309 309 310 310 310 310 309 309 309 309 309 309 309 309 309 309 308 308 308 310 311 312 311 312 311 311 312 313 313 313 313 314 315 315 316 317 317 317 318 320 320 320 321 322 322 320 320 320 321 321 322 325 327 327 327 326 327 328 327 328 330 332
313 313 313 314 313 313 313 312 312 312 311 310 309 310 310 310 311 311 310 310 310 310 310 310 310 310 310 310 310 310 310 310 309 309 309 309 309 309 309 309 309 309 309 309 309 310 311 311 311 312 311 312 312 313 313 314 314 314 314 314 315 315 316 316 317 319 320 321 322 320 320 319 319 320 320 321 323 325 325 325 325 326 326 326 327 328 330
313 314 314 314 314 314 313 313 313 313 312 311 311 310 311 311 311 311 311 310 310 310 309 309 310 310 310 310 310 310 310 310 309 309 309 309 309 309 309 309 309 309 309 309 309 310 310 311 311 312 311 312 312 312 312 313 314 313 314 314 314 315 316 317 318 318 318 319 320 319 318 318 318 319 320 321 323 324 323 323 324 325 325 325 326 326 327
313 314 314 314 314 314 314 314 313 312 312 311 311 311 311 311 311 311 311 311 310 310 309 309 310 311 311 310 310 310 310 310 310 309 308 308 308 308 308 308 309 309 308 309 309 309 310 310 311 311 311 311 312 312 312 312 313 313 313 313 313 314 315 316 317 318 317 318 319 319 320 319 319 318 319 320 321 321 321 322 322 323 324 324 324 324 324
314 314 314 314 314 315 314 314 313 312 311 311 312 311 311 312 312 311 311 310 310 310 310 310 310 310 311 310 310 311 310 310 310 309 308 308 308 308 308 308 308 308 309 309 309 309 310 310 310 310 310 310 311 311 311 311 312 312 313 312 312 314 315 315 316 317 317 318 319 320 319 318 319 318 317 317 318 319 320 320 321 322 323 323 323 323 323
314 315 314 315 315 315 314 314 313 312 312 312 312 312 312 312 312 311 311 310 310 310 310 310 310 310 310 311 311 311 310 310 310 309 309 308 308 308 308 308 308 308 309 309 310 310 310 310 310 310 310 310 310 310 311 311 311 312 312 313 313 314 315 316 316 316 317 317 317 317 317 317 317 317 317 317 317 318 319 320 320 321 321 320 321 323 324
314 315 315 315 315 315 314 314 313 313 313 313 313 313 313 312 311 311 311 310 310 310 310 310 310 310 311 311 311 312 311 311 311 310 310 309 309 309 309 308 309 309 309 309 310 310 310 310 310 310 310 310 309 309 310 310 311 311 312 312 312 313 313 314 315 315 315 315 315 315 316 316 316 316 316 316 317 317 318 318 318 319 319 319 321 323 324
315 316 316 316 315 315 314 314 314 314 314 314 315 315 315 314 312 311 310 309 309 310 310 309 309 310 310 311 311 312 312 312 311 311 311 310 310 310 309 309 309 309 309 309 309 310 310 310 310 310 310 309 310 310 310 310 310 310 310 311 311 311 312 312 313 314 314 314 314 314 314 315 315 315 315 316 316 317 317 317 317 318 319 320 322 322 323
315 317 317 316 315 315 315 314 314 314 314 314 315 315 315 314 313 311 309 308 309 309 309 309 310 310 310 311 311 312 312 312 312 312 312 311 310 310 310 310 310 309 309 309 309 309 309 310 310 310 310 309 310 310 310 310 310 310 310 310 311 311 312 312 312 313 313 313 313 313 314 314 315 315 316 316 316 316 317 317 317 318 318 318 319 319 319
315 317 318 317 316 316 317 316 316 316 315 315 314 314 313 313 312 311 310 309 308 309 309 309 310 310 310 311 312 312 312 312 312 313 313 312 311 310 310 310 310 310 309 309 309 309 309 309 309 309 309 309 309 309 309 309 310 310 310 310 311 311 311 311 312 312 312 312 312 313 313 313 314 315 316 316 316 316 316 316 316 316 316 316 317 318 318
316 318 318 318 317 316 317 317 317 317 317 316 316 315 313 313 312 311 310 310 309 308 308 309 309 310 311 312 313 313 313 313 313 313 314 313 312 311 311 310 310 309 310 309 309 308 308 309 309 309 309 309 308 307 307 309 310 310 309 309 309 309 309 310 310 311 311 311 312 312 313 313 314 315 315 316 316 316 316 316 316 316 316 317 317 317 318
317 318 319 319 318 317 318 318 318 318 318 317 317 317 315 314 313 312 312 311 310 309 309 309 310 311 312 313 314 314 314 314 314 315 314 314 312 312 312 311 310 309 310 309 309 309 308 308 308 308 308 308 307 307 308 309 308 307 307 308 308 310 310 309 310 310 311 311 311 312 312 313 313 314 314 315 315 316 316 316 316 316 316 317 317 317 318
319 319 319 320 319 319 319 318 318 319 319 319 319 318 316 315 314 313 313 312 312 312 312 311 310 312 313 316 317 316 315 315 315 315 315 314 313 312 312 311 311 310 310 309 309 308 308 308 308 308 307 306 307 308 309 308 307 307 308 310 312 314 315 313 312 313 313 312 312 312 313 313 314 314 314 314 315 315 315 315 316 316 317 317 317 317 317
320 320 320 320 320 320 320 320 319 320 320 320 319 317 316 316 315 315 314 313 312 313 314 313 313 314 316 317 317 316 316 317 317 316 315 316 315 313 312 312 313 312 311 310 310 310 309 308 308 307 306 307 308 309 309 309 309 310 311 312 314 316 317 317 317 317 315 314 313 313 313 314 315 315 314 315 315 315 315 315 316 316 316 317 317 317 317
320 321 321 321 321 322 322 321 320 319 320 320 319 317 317 316 316 316 315 314 313 313 313 314 315 316 316 316 316 317 318 319 319 318 317 317 316 315 314 314 315 314 313 313 313 312 311 309 308 307 307 308 309 310 310 311 312 311 311 311 312 314 315 317 319 319 317 315 314 314 314 314 315 315 315 315 315 315 315 316 316 316 316 317 317 317 318
321 321 321 322 322 323 323 322 320 320 320 320 319 318 317 317 316 316 316 314 314 314 314 315 317 316 315 317 319 319 319 319 320 320 319 318 317 317 316 316 315 315 316 317 315 313 312 310 308 307 308 309 311 312 312 312 312 311 311 311 311 312 312 314 316 318 318 317 316 316 316 316 316 316 316 315 316 316 316 316 316 316 317 317 317 318 319
320 321 322 322 323 322 321 321 320 320 321 321 320 320 320 319 319 319 318 316 317 317 317 317 318 318 318 320 321 320 318 319 320 320 320 319 319 319 318 318 317 316 316 317 315 314 314 312 309 308 310 312 313 313 312 311 311 310 310 310 310 310 311 312 313 315 317 319 319 318 317 317 317 317 316 316 316 316 316 316 316 317 317 317 317 318 319
319 319 321 322 322 321 321 321 321 321 321 322 322 322 322 321 321 321 321 320 319 320 320 320 319 318 319 321 323 321 319 320 320 320 320 319 319 319 319 319 318 316 315 315 315 315 314 312 310 310 312 314 313 312 311 311 310 309 310 310 310 309 309 310 311 313 315 317 319 320 319 319 318 317 317 316 316 316 317 317 316 317 317 317 318 319 320
318 318 320 320 319 319 320 320 321 321 322 323 322 322 321 321 320 320 320 320 320 321 321 321 320 319 319 320 322 321 320 319 320 320 320 320 318 318 319 319 318 316 315 315 315 315 314 313 312 312 313 314 314 313 312 311 309 309 309 309 309 309 309 309 310 311 312 314 315 317 318 319 319 318 318 317 317 317 317 317 317 317 317 318 319 321 323
318 318 319 319 319 319 320 321 322 323 322 321 320 320 320 319 320 321 321 319 320 320 321 320 320 319 318 318 320 320 320 319 319 319 320 320 319 319 320 319 317 316 316 315 314 314 313 313 313 313 314 314 314 313 312 311 310 309 308 308 309 309 309 308 308 309 309 311 312 313 314 316 317 317 318 318 319 319 319 319 319 320 320 320 321 323 325
319 319 319 320 321 321 322 321 320 320 321 320 318 319 319 318 319 320 320 318 318 320 321 321 321 320 319 319 320 320 320 321 320 319 319 319 319 319 317 316 315 315 315 314 314 313 313 313 314 313 313 314 313 312 312 311 310 309 308 308 308 309 308 308 308 308 308 308 309 310 311 312 313 314 315 316 317 319 320 320 320 321 322 321 322 322 322
320 320 320 320 319 319 320 319 316 316 318 319 317 317 317 317 317 318 318 317 318 319 320 320 321 321 320 319 319 320 321 321 321 319 318 317 316 316 316 314 314 314 314 313 313 314 313 314 314 313 313 314 314 313 311 310 310 309 308 307 307 308 308 308 308 308 308 308 308 308 309 309 310 311 312 312 313 314 315 316 316 317 317 318 318 318 317
321 321 319 318 317 316 317 317 316 315 316 317 316 316 317 316 317 317 317 316 317 318 318 317 318 320 320 319 318 318 318 319 319 318 317 316 315 315 315 314 314 314 314 314 314 314 314 313 313 313 313 313 313 312 312 311 310 309 309 308 307 307 307 307 308 307 307 308 308 307 307 308 308 308 309 310 310 310 311 312 313 313 313 313 313 313 312
320 319 317 317 317 316 316 316 316 315 316 316 316 316 316 316 316 316 316 315 316 316 316 316 317 318 318 318 318 317 316 317 318 317 316 316 316 315 314 314 314 314 314 314 314 314 313 313 313 313 313 313 312 312 313 312 311 310 310 309 308 307 307 307 308 307 307 307 307 307 307 307 307 307 307 307 307 308 308 309 309 311 311 311 311 311 310
318 317 317 317 317 317 316 316 316 316 316 316 315 314 315 315 315 315 315 315 315 316 316 315 316 317 317 317 318 317 316 317 318 317 315 315 315 314 314 314 314 314 314 314 314 313 313 313 313 313 313 313 312 312 313 312 312 311 311 310 309 308 308 307 307 307 307 306 306 305 305 306 306 306 306 306 306 306 306 307 307 307 308 309 310 310 310
316 316 316 317 317 317 316 316 316 315 315 315 315 314 314 315 315 315 314 314 314 316 315 315 315 316 316 315 316 316 315 316 317 316 315 315 315 315 314 314 313 313 314 314 314 313 313 312 312 312 312 313 313 312 313 313 312 312 312 312 311 310 308 307 307 307 307 307 306 306 305 305 305 304 304 305 304 304 305 305 305 305 306 306 307 308 309
315 315 315 316 316 315 315 315 316 316 316 315 315 314 314 314 314 314 313 313 314 315 315 314 314 315 315 314 315 315 315 315 315 315 315 315 315 314 314 313 313 314 314 313 313 313 312 312 312 312 312 312 312 312 312 312 312 312 312 312 312 311 310 308 307 307 307 307 307 306 306 306 305 305 304 304 304 303 303 303 303 304 304 304 305 305 306
315 314 315 315 315 314 314 314 314 315 316 315 315 314 314 314 314 313 313 313 314 314 314 313 313 314 313 313 314 314 314 315 314 314 314 314 313 313 313 313 313 313 314 313 313 312 312 311 312 312 311 311 311 311 311 312 312 311 311 311 311 312 311 310 309 308 307 307 306 306 306 307 307 306 306 306 306 305 305 304 303 303 303 304 304 304 305
315 315 315 315 315 315 315 314 314 314 315 315 315 314 314 314 314 313 313 313 314 314 314 313 313 313 313 313 313 314 314 314 313 313 313 312 312 312 312 312 312 312 313 313 313 312 311 311 311 311 311 311 310 310 310 310 310 311 311 311 311 311 312 311 311 311 310 308 307 306 306 307 307 307 307 307 307 307 307 306 306 305 305 305 305 305 305
315 316 316 316 315 316 316 315 314 314 315 315 314 314 314 314 313 312 312 312 313 313 313 313 313 313 313 313 313 313 313 312 312 311 311 311 311 310 310 310 309 310 311 312 312 312 311 311 311 311 310 310 309 309 309 309 309 309 310 310 310 311 311 311 311 311 311 311 310 309 309 308 308 308 307 307 307 307 307 307 306 306 306 306 306 305 305
Wind_Speed
29 29 29 28 29 30 31 32 32 34 36 38 38 33 22 16 19 20 20 27 25 15 5 6 6 4 7 10 11 12 12 10 8 8 9 7 7 8 7 7 9 8 8 9 10 9 7 8 9 10 12 10 12 22 29 28 23 15 9 11 16 14 4 4 7 7 9 11 13 17 18 15 12 11 9 7 9 9 7 4 6 6 5 6 3 3 5
29 28 28 28 28 29 31 32 31 32 33 34 34 30 20 18 23 22 20 24 22 11 5 5 5 6 9 9 11 13 11 10 9 8 7 7 6 6 7 8 9 9 10 9 10 10 6 6 10 11 9 11 19 25 27 25 18 12 11 12 14 12 5 3 4 4 6 7 8 13 15 14 9 10 12 11 10 12 9 4 4 5 7 8 4 3 5
28 28 27 27 27 28 29 31 31 30 30 30 30 27 21 18 14 15 22 26 20 11 10 10 7 8 12 11 11 12 10 11 12 9 9 9 7 6 7 10 10 9 10 9 9 8 6 5 8 8 8 12 18 22 26 26 19 17 24 24 16 9 6 4 4 3 4 3 3 6 11 11 7 9 15 15 14 13 10 5 3 4 7 9 6 4 6
28 27 27 27 27 27 28 29 30 29 27 27 26 22 18 15 8 8 18 24 19 14 18 18 11 8 11 9 10 11 9 10 12 10 7 8 9 9 8 10 10 9 9 9 9 8 7 6 6 7 9 9 12 21 27 26 24 24 29 30 17 6 6 7 6 5 6 6 5 5 9 13 11 11 14 17 17 13 9 7 5 4 6 6 6 6 5
28 28 28 27 27 27 27 27 27 27 25 24 22 18 13 10 7 8 12 14 13 13 17 19 13 11 12 7 8 12 12 10 9 8 7 6 6 6 6 8 9 8 10 10 9 9 8 6 7 8 9 8 13 24 27 22 23 24 24 25 17 5 5 8 8 9 10 12 14 11 8 14 17 16 14 16 20 18 11 8 8 6 6 5 7 9 8
29 29 28 28 27 27 26 25 25 25 23 20 17 13 9 6 8 14 13 8 7 9 13 16 15 14 13 8 8 12 11 10 9 8 9 8 5 4 4 8 9 10 11 9 8 8 6 6 7 6 8 9 11 18 22 18 16 17 17 18 13 5 6 9 11 13 14 13 14 13 9 6 12 17 16 14 19 22 17 9 9 9 7 5 7 11 10
29 29 28 27 27 26 25 24 24 24 21 17 12 8 7 7 8 13 13 9 9 12 15 17 15 12 11 8 8 10 10 10 9 8 9 9 6 5 5 9 11 11 11 9 8 8 5 4 6 6 8 9 7 10 15 14 14 16 13 13 12 6 6 13 16 14 14 11 10 13 11 6 1 9 17 16 16 22 20 11 9 11 9 7 8 11 10
30 29 28 28 27 26 26 25 24 23 19 14 9 5 7 8 7 10 13 11 12 14 14 13 11 9 9 7 7 10 12 12 10 10 12 10 6 7 10 12 13 11 10 9 8 9 7 4 5 7 9 7 4 4 6 9 15 16 10 10 12 9 8 15 16 9 8 8 7 12 13 7 4 3 9 12 12 18 20 16 10 8 9 9 8 10 7
30 30 29 29 28 27 26 25 23 21 16 12 9 8 9 9 8 10 11 9 9 11 11 10 7 6 6 6 7 9 11 15 13 12 14 13 8 8 11 13 13 11 9 9 10 11 10 9 9 10 10 7 5 5 6 10 14 14 10 9 11 10 9 13 12 6 6 7 6 11 13 8 7 6 4 3 4 9 17 16 10 7 10 10 7 7 5
31 31 29 29 28 26 25 24 21 18 12 10 11 11 12 13 12 11 10 6 6 8 9 8 6 5 5 7 9 10 12 17 16 10 10 13 13 13 14 12 11 10 9 10 12 13 14 15 14 14 15 14 11 11 13 14 12 10 10 9 8 8 9 9 9 6 7 10 11 11 9 7 5 5 2 2 3 5 12 17 12 6 9 9 6 5 6
31 30 29 28 27 25 23 22 20 16 12 10 12 14 14 15 15 13 9 5 5 8 7 5 5 7 9 12 13 13 14 16 14 9 7 12 18 21 19 14 9 7 10 14 17 18 18 19 19 19 19 18 16 16 17 17 16 13 10 7 8 10 9 7 6 5 7 13 14 8 4 4 3 1 2 1 3 6 5 13 14 10 6 6 6 6 4
30 29 28 27 26 24 22 21 19 16 13 11 13 15 14 14 15 13 6 3 5 7 6 6 8 10 14 16 14 13 14 15 16 15 13 12 17 19 16 12 7 8 14 21 24 22 19 17 18 17 17 17 18 18 17 16 16 17 14 10 10 11 10 7 4 3 6 9 9 3 1 4 4 3 4 2 1 2 5 8 3 6 6 6 10 8 5
29 28 27 26 25 23 22 21 19 16 13 12 13 14 13 14 15 13 8 5 5 6 6 10 14 16 17 17 15 15 17 18 19 18 15 13 15 16 13 9 9 14 19 22 24 19 12 9 10 11 12 12 12 13 15 16 16 17 17 13 11 10 8 5 5 4 4 4 3 0 2 6 7 4 4 3 1 2 7 13 15 13 10 2 10 11 8
28 28 27 26 25 23 22 20 19 16 13 12 14 14 13 13 15 15 11 5 4 8 9 9 11 14 15 16 15 14 15 17 17 14 12 11 12 14 14 13 14 20 21 20 18 11 4 4 6 6 6 6 6 8 11 14 15 17 16 13 11 10 6 4 5 4 3 4 4 2 4 6 6 4 6 4 1 3 6 8 12 19 21 12 3 13 13
27 27 27 27 25 24 22 20 18 16 13 12 14 14 13 13 14 16 15 9 5 9 10 9 9 11 13 15 15 11 8 9 11 11 11 11 9 10 14 16 17 19 18 15 10 4 2 4 4 4 5 4 4 5 5 7 11 15 17 13 11 11 7 4 4 3 4 5 4 3 2 1 5 12 14 11 4 5 9 10 10 16 23 21 11 9 12
27 27 27 27 26 24 21 19 17 16 14 12 14 15 13 12 14 15 17 13 7 5 6 9 12 13 13 15 16 11 4 2 6 8 7 8 10 10 13 16 16 15 14 11 5 2 3 3 2 3 5 5 6 5 4 4 4 11 15 15 13 13 8 4 3 3 5 4 2 3 1 1 10 16 18 19 13 6 10 10 10 13 19 23 20 16 16
27 27 27 26 26 24 21 19 17 16 14 12 14 16 14 12 14 15 17 16 12 12 15 16 16 14 11 11 12 9 4 4 6 5 3 7 11 12 14 16 13 12 12 8 3 2 3 3 2 3 3 4 7 6 6 8 5 3 9 13 12 10 6 4 4 4 4 4 3 3 1 3 13 16 17 25 21 6 9 8 6 11 17 21 22 20 19
26 26 26 26 26 25 22 20 18 15 13 12 14 16 14 12 13 14 16 17 12 12 17 16 13 12 10 8 11 12 10 8 6 3 5 7 7 10 15 13 8 8 10 6 1 1 3 2 2 3 2 3 5 5 5 6 6 6 2 5 6 5 4 3 4 4 5 5 3 3 0 4 14 16 20 27 18 5 10 5 3 13 16 20 24 23 22
26 26 27 27 27 26 23 20 17 14 12 11 12 15 13 12 12 12 14 17 13 11 14 14 13 15 15 13 16 16 13 11 7 4 4 4 6 15 17 8 2 5 7 4 1 1 2 2 2 2 2 3 4 4 5 5 5 7 6 2 3 4 3 3 4 4 5 4 2 2 1 8 18 18 22 26 12 4 4 1 5 11 16 21 25 25 24
27 28 28 28 28 26 22 19 16 14 12 10 12 15 14 12 12 12 13 15 15 17 20 18 15 16 16 14 15 15 13 12 9 4 3 6 11 17 11 2 4 6 4 2 2 1 1 3 3 2 1 3 4 3 4 6 7 6 6 5 2 3 2 2 4 3 3 3 2 2 1 9 22 19 16 19 9 5 2 3 6 15 21 22 24 26 26
28 29 29 29 27 24 20 17 15 13 12 11 11 15 15 12 10 11 12 12 13 14 13 9 8 13 15 15 16 17 15 15 13 10 10 12 13 11 5 3 7 5 1 2 3 1 1 2 3 2 2 2 3 3 5 6 7 6 6 5 3 1 1 1 2 2 2 1 2 2 5 6 19 17 9 10 10 11 10 10 12 17 22 23 23 25 28
30 30 29 28 25 22 18 16 15 13 12 11 11 13 14 10 8 8 8 10 13 14 13 13 16 18 18 17 16 16 16 17 17 16 14 15 14 12 8 6 6 4 3 4 2 1 1 1 2 3 3 2 2 5 6 4 4 6 7 5 3 5 4 2 2 2 3 2 2 2 4 8 17 16 12 13 16 17 17 17 16 18 22 24 24 24 26
30 30 29 26 23 20 17 15 14 13 12 10 9 10 11 9 6 6 7 8 12 15 17 17 17 15 13 12 10 9 10 12 14 14 13 12 12 11 8 5 3 3 5 5 1 2 3 2 2 2 3 3 4 5 6 5 3 5 7 5 5 8 9 5 2 2 4 3 4 1 6 13 15 14 14 16 16 16 18 19 19 21 22 22 23 24 25
31 29 27 24 21 18 16 15 14 14 12 9 7 7 6 5 4 5 5 6 9 10 11 10 10 10 11 11 10 9 9 10 12 12 10 10 10 8 7 6 6 5 7 8 8 7 5 4 3 3 2 4 4 3 4 4 3 4 7 6 5 8 11 8 4 4 3 2 2 4 8 12 14 14 15 15 14 15 16 16 15 18 20 21 22 22 23
29 27 24 21 19 16 16 16 16 14 11 8 5 2 1 2 3 4 5 5 6 5 5 6 9 10 11 12 11 10 9 9 9 9 8 10 10 9 9 10 10 9 10 13 13 10 7 3 3 4 4 3 3 2 3 4 4 5 5 3 4 8 11 8 5 5 4 3 6 10 10 10 13 15 12 12 15 15 15 15 13 13 15 18 20 20 22
27 24 22 19 17 16 16 16 14 11 9 8 6 4 2 2 1 3 4 5 6 5 4 6 8 10 12 13 11 8 7 8 7 7 8 8 9 10 11 11 10 10 12 13 12 12 8 4 3 3 3 3 3 3 3 5 6 6 4 5 9 11 10 6 4 6 6 5 6 8 8 7 9 12 13 14 14 14 14 15 14 13 13 15 16 17 18
23 21 19 18 16 15 15 14 11 10 10 9 7 6 4 3 3 3 4 4 5 3 2 4 9 14 14 12 10 8 6 6 5 6 7 7 8 9 10 10 10 11 11 10 11 11 8 5 4 5 5 8 8 5 5 6 7 5 5 8 11 10 6 4 5 5 4 4 5 8 6 4 6 13 18 16 12 11 12 12 12 12 12 13 14 14 14
20 19 17 16 14 14 13 12 11 12 12 9 7 6 5 4 4 4 4 4 4 4 5 9 14 16 13 10 11 11 6 3 3 5 7 7 7 8 8 9 10 10 10 8 8 6 4 4 6 7 7 10 9 5 7 8 7 4 4 7 8 6 5 5 5 5 6 10 15 17 12 7 8 14 16 13 11 11 11 10 9 9 10 11 12 12 13
18 17 15 14 13 12 12 12 12 12 11 9 7 5 4 4 6 6 5 5 5 6 8 10 11 10 8 8 11 12 9 6 5 5 5 6 6 7 8 9 9 8 9 8 6 4 4 6 8 8 7 10 7 5 6 7 5 5 8 12 16 17 18 17 13 9 10 16 22 24 20 16 16 19 18 15 14 12 10 10 10 9 10 10 8 8 9
16 15 13 12 11 12 11 11 12 13 12 10 8 6 2 3 6 8 8 8 5 5 5 5 5 6 8 8 9 11 12 8 6 6 6 6 5 5 7 8 8 9 9 7 6 5 6 7 7 6 7 10 7 3 3 5 5 8 14 20 23 25 28 27 22 17 16 21 26 27 25 24 24 21 18 18 17 14 13 12 10 9 8 7 7 8 8
13 13 12 10 10 11 11 11 11 12 13 12 9 6 2 2 6 9 11 9 6 4 3 4 6 8 9 7 8 11 12 9 6 7 7 6 6 7 7 7 7 7 7 7 8 7 6 5 5 6 8 10 7 2 3 5 4 8 17 23 25 26 29 30 29 28 26 27 29 30 30 30 26 21 18 17 15 13 14 13 10 9 10 10 11 12 11
12 11 10 9 9 10 12 12 12 12 13 12 9 7 6 6 7 9 10 8 5 3 3 3 4 4 4 6 9 11 10 6 4 6 7 5 5 7 9 9 8 6 6 7 7 5 5 6 7 8 10 10 6 3 4 4 4 12 25 32 33 34 35 34 34 35 34 31 27 24 26 27 22 18 18 18 16 15 17 18 16 16 16 15 16 15 13
10 10 9 8 9 10 12 13 13 13 12 11 9 9 10 9 8 9 6 3 4 4 3 2 2 1 3 7 9 11 9 5 3 5 6 5 3 2 3 4 5 5 5 4 3 2 3 4 5 7 8 7 4 2 3 5 11 22 34 40 42 44 43 42 39 37 37 35 29 24 26 27 22 18 18 18 18 17 17 18 19 19 17 17 17 16 15
9 10 9 7 8 9 11 12 11 11 11 8 6 10 13 10 8 9 6 4 4 5 4 3 1 2 4 5 4 8 10 6 4 5 4 4 4 2 1 2 2 1 2 2 2 2 4 4 4 6 5 4 3 3 3 7 18 29 37 42 45 46 44 43 40 38 36 35 33 33 35 33 28 25 25 24 21 19 18 18 19 20 20 20 20 19 18
8 10 9 7 7 7 9 10 8 8 8 4 5 11 14 10 7 7 6 5 3 2 3 3 1 1 3 2 1 8 11 6 2 4 3 2 4 3 2 1 1 1 1 2 2 1 3 3 3 4 4 3 1 2 4 10 20 30 37 38 37 32 26 27 29 30 31 32 33 33 32 29 28 29 30 28 24 21 19 19 19 19 20 22 22 21 21
9 11 10 8 7 7 7 8 8 8 7 7 11 14 14 10 7 6 5 5 4 1 1 2 1 1 2 1 2 8 11 6 2 3 3 1 2 2 1 1 0 0 2 3 2 1 2 2 1 2 2 2 2 7 12 16 21 30 37 38 35 30 20 11 14 19 22 23 27 31 29 26 27 28 29 28 26 22 20 20 20 19 20 20 20 20 21
9 11 9 9 9 8 6 7 10 12 12 13 14 13 11 8 5 4 3 3 3 2 1 1 1 1 1 1 3 7 8 5 3 3 2 1 1 1 1 0 1 1 1 2 1 0 2 3 1 1 1 3 7 13 18 21 25 31 38 40 40 39 37 31 20 8 13 15 19 24 26 26 26 26 26 27 25 22 21 21 21 20 19 19 19 19 18
9 10 9 9 9 6 5 7 12 15 16 14 12 9 6 3 2 3 2 1 2 3 2 1 2 3 2 2 3 6 5 3 3 2 1 1 1 1 1 1 1 1 1 1 2 3 1 3 1 1 3 5 11 18 23 27 31 35 39 43 45 43 40 39 34 19 5 10 16 20 21 23 24 24 25 25 24 23 22 21 21 20 19 19 19 19 18
8 10 9 8 7 6 9 12 15 17 17 13 9 5 2 1 1 1 3 4 1 2 2 2 2 3 2 2 3 6 5 3 3 2 2 2 1 0 1 1 1 1 1 1 3 4 2 1 1 2 2 6 15 23 28 31 34 38 40 43 47 49 46 43 41 35 24 9 8 18 20 20 20 21 22 23 22 22 21 20 20 20 19 19 20 19 18
9 10 8 7 6 9 14 16 17 17 14 8 4 3 2 2 1 1 2 3 1 1 2 2 4 4 2 2 2 2 4 3 1 1 2 2 1 1 1 1 1 1 2 2 3 4 2 1 2 3 4 7 14 22 29 32 35 39 41 42 45 50 52 50 45 43 40 32 17 5 9 12 13 14 16 17 18 19 19 19 19 20 20 21 20 18 19
11 10 8 7 8 12 16 17 16 13 9 4 2 2 2 1 1 1 2 0 1 1 2 3 4 3 2 3 3 3 3 3 2 2 2 2 2 2 1 1 1 1 2 2 3 3 2 2 2 3 6 13 19 23 27 30 33 37 40 41 43 47 50 52 50 48 47 44 38 30 19 9 4 7 10 13 14 14 16 18 19 21 21 20 18 16 17
11 11 11 10 10 12 14 12 9 6 4 2 1 1 2 1 2 3 3 2 4 4 4 4 4 5 4 4 4 4 3 2 1 2 2 2 3 3 1 1 1 1 2 1 1 2 2 3 2 3 9 17 23 26 26 27 30 34 37 39 41 43 46 48 49 48 48 46 45 44 41 33 25 17 9 6 6 8 11 15 17 16 16 16 16 14 14
11 12 12 11 9 8 7 6 4 2 1 1 1 1 2 2 2 2 2 3 6 6 4 4 5 7 5 3 3 4 3 2 2 2 2 1 1 2 1 1 2 2 2 1 1 2 3 3 3 6 12 17 21 25 26 25 25 29 34 37 38 39 41 43 45 46 48 48 47 47 47 46 43 40 35 30 23 18 12 7 7 8 8 8 10 12 17
11 11 9 7 5 3 2 2 3 2 1 2 2 3 4 5 4 3 4 5 6 8 8 7 7 6 4 4 4 3 3 4 5 4 2 2 2 1 1 2 3 3 2 2 2 2 2 3 4 9 15 18 20 22 23 23 23 25 29 34 36 37 38 40 42 44 46 47 48 48 48 48 47 46 46 44 41 38 35 32 30 29 27 25 25 25 25
10 10 9 5 3 2 1 1 2 1 1 2 2 3 4 5 4 4 6 9 10 11 12 13 10 6 5 6 4 2 3 2 1 1 2 3 2 2 2 2 3 3 2 3 3 2 2 4 7 11 15 19 20 20 19 20 22 23 24 28 33 36 37 37 39 41 43 44 45 46 46 47 47 47 46 45 46 47 46 43 40 38 36 36 36 33 31
9 10 8 4 3 2 1 0 1 2 2 4 5 7 7 6 7 8 10 14 17 15 14 15 13 7 5 6 4 3 5 6 3 2 5 3 2 3 2 2 3 4 3 2 3 3 3 4 8 11 15 19 21 21 19 19 20 22 23 24 27 31 33 34 34 35 38 41 42 42 42 43 44 44 44 44 46 47 46 44 44 43 40 38 37 35 34
9 9 6 4 3 2 1 0 2 5 9 12 12 12 12 12 14 13 14 18 21 19 16 17 14 6 2 4 3 3 7 7 3 4 6 3 2 2 3 3 3 3 2 2 3 3 2 5 11 14 17 19 21 21 21 21 21 21 21 21 22 24 27 30 31 31 32 35 38 39 40 41 41 42 43 44 44 43 42 41 42 42 40 39 38 37 36
9 6 3 3 2 1 4 7 7 10 14 15 13 13 14 14 14 14 16 21 24 19 16 16 13 6 3 5 4 3 6 7 4 3 5 4 1 1 3 3 2 2 1 2 4 3 4 9 15 17 18 19 19 20 20 20 21 22 20 19 19 20 22 25 27 28 28 29 31 33 36 38 39 39 41 42 41 40 38 38 38 37 37 37 39 39 40
6 3 2 3 2 4 10 14 12 9 11 12 13 14 14 13 13 15 18 22 22 17 14 15 12 7 5 7 5 3 4 5 3 1 3 4 3 2 2 2 3 3 2 1 2 4 8 14 17 18 19 21 20 20 20 19 20 22 22 20 18 17 17 18 21 23 25 26 26 27 28 30 33 34 36 37 38 37 36 37 37 36 35 36 37 38 38
5 2 0 3 5 6 9 11 9 6 8 11 12 13 14 13 14 16 18 21 21 16 11 11 10 7 5 5 3 1 3 4 2 2 3 4 4 3 3 3 2 2 1 1 3 6 11 15 16 17 18 20 20 20 20 20 19 20 22 21 19 18 17 16 15 16 19 21 23 24 25 26 27 28 29 30 32 32 33 34 35 34 34 34 34 34 33
6 3 2 1 1 1 3 5 5 5 7 9 11 12 13 13 13 14 16 19 20 15 8 7 7 4 3 3 2 2 3 4 3 3 4 4 2 3 5 4 3 2 3 4 6 9 12 14 16 16 17 18 18 18 19 20 19 19 19 20 19 18 18 18 17 15 15 15 17 20 22 23 24 24 25 25 26 27 28 29 30 30 31 31 31 31 30
6 5 7 7 6 6 6 6 8 8 8 9 11 12 12 11 11 12 14 17 17 14 10 9 7 3 1 3 4 3 3 3 3 4 4 4 3 4 5 6 9 11 10 9 9 10 12 14 15 16 16 16 17 16 17 18 18 18 18 18 19 18 17 18 18 18 17 15 14 15 16 17 18 20 22 23 24 25 25 25 25 25 26 27 27 27 28
Wind_Direction
338 338 338 339 340 340 342 344 347 350 349 348 353 357 356 337 310 310 347 2 355 345 314 301 329 338 328 338 343 336 323 311 325 344 340 335 336 329 316 318 327 325 328 332 325 324 327 318 326 340 333 322 323 328 334 341 341 333 330 335 336 334 314 259 263 258 265 249 199 173 176 187 197 211 216 201 192 186 174 179 174 172 206 216 234 272 256
336 336 336 337 338 338 339 341 345 349 350 349 350 351 344 324 311 314 342 356 350 344 323 321 334 325 328 344 344 329 316 314 331 340 329 325 333 321 316 331 333 326 327 323 321 337 344 329 339 342 322 315 323 325 332 339 336 325 332 337 329 321 310 314 308 250 248 254 199 172 176 186 198 202 207 220 207 181 175 186 169 178 203 187 181 253 248
335 335 335 335 336 336 336 338 341 346 350 348 348 349 338 324 313 316 334 342 341 346 354 347 336 336 347 353 337 324 320 324 326 321 318 332 350 342 324 327 324 315 316 314 319 346 3 336 332 337 317 312 317 322 328 330 320 314 325 330 323 298 275 293 299 232 230 237 198 185 181 183 200 199 197 215 219 192 177 178 167 190 207 189 176 220 248
333 333 334 333 334 334 334 335 337 343 348 347 349 353 341 328 326 331 337 339 338 350 358 357 357 350 346 341 328 325 320 318 319 315 332 9 7 342 324 322 319 307 310 317 320 342 4 339 313 319 321 316 314 318 320 317 312 318 329 334 330 286 255 268 250 239 254 258 274 253 185 174 189 200 195 202 216 213 179 163 186 185 182 199 195 176 198
330 330 331 330 331 332 332 333 335 340 346 346 348 353 345 330 327 336 343 339 336 349 356 357 354 327 321 327 323 321 317 316 323 322 334 9 3 332 321 319 317 314 323 328 325 340 352 321 307 318 321 316 312 315 316 311 314 325 334 336 332 299 281 289 264 262 265 264 280 279 214 180 182 194 203 196 202 216 206 175 185 165 143 208 213 156 156
328 327 328 328 328 329 329 330 331 336 342 344 347 351 351 348 329 327 337 337 332 341 336 334 328 313 318 327 309 312 320 325 331 326 324 332 347 359 324 308 314 320 327 328 321 332 334 304 315 328 318 324 326 322 321 319 332 345 336 332 336 301 300 330 321 302 288 277 286 291 274 212 178 190 210 205 193 207 215 192 171 159 148 207 203 157 159
327 326 326 326 326 326 326 326 327 330 335 341 347 345 337 341 323 320 332 329 308 306 305 309 316 318 322 317 307 323 332 327 324 320 315 316 333 352 315 306 320 322 324 328 319 325 331 314 330 328 311 324 335 327 321 322 350 1 336 325 335 313 315 340 333 312 297 294 300 301 293 285 213 194 209 216 202 198 209 214 184 162 166 194 176 156 168
327 326 325 324 325 324 322 321 322 324 330 338 343 317 309 329 327 319 324 313 300 302 304 310 318 321 321 321 338 343 332 324 321 312 310 313 328 338 317 310 317 318 324 329 316 322 331 315 313 311 311 325 325 318 313 307 329 342 333 324 328 322 328 334 331 320 304 307 309 302 296 285 297 250 204 219 216 194 199 217 210 163 170 192 161 146 172
326 325 324 324 324 322 320 319 320 324 329 329 319 299 298 308 311 318 318 306 302 308 310 314 313 311 322 333 345 341 324 320 320 312 311 315 320 323 311 309 313 312 318 319 313 320 318 297 288 286 286 294 289 282 286 295 313 324 322 322 323 322 327 328 334 338 316 329 317 290 299 309 290 269 219 217 247 201 191 205 219 180 170 181 147 137 196
326 324 324 324 323 321 320 319 321 326 325 311 299 293 299 301 299 312 317 299 298 305 303 308 305 302 322 323 318 320 315 316 320 321 317 316 318 314 306 310 317 312 315 321 319 319 307 292 287 278 273 275 267 257 266 275 283 297 308 314 311 316 323 327 339 332 310 329 319 284 298 328 289 255 217 84 332 269 198 193 212 199 163 168 165 182 205
325 324 323 323 322 322 320 318 321 324 314 298 286 280 288 294 293 302 313 293 287 299 299 301 298 298 307 309 311 313 313 316 320 318 311 315 319 318 319 331 338 315 317 325 318 309 300 293 288 277 271 270 261 253 257 262 265 271 284 296 297 305 312 313 330 324 300 315 317 304 313 312 262 268 24 77 325 309 213 185 202 211 176 143 160 194 168
325 324 324 324 322 322 320 318 319 318 307 293 281 274 279 286 286 288 289 275 292 301 298 291 295 304 308 305 304 305 310 317 315 310 311 315 315 317 325 341 337 308 320 329 325 317 310 304 296 284 274 266 258 252 249 251 258 260 259 267 285 300 309 308 315 304 291 312 328 336 310 276 271 317 335 306 294 6 63 85 106 242 230 157 153 170 131
324 325 325 325 324 322 319 317 317 315 307 294 282 274 273 278 281 275 263 259 279 281 281 285 290 296 301 301 303 303 307 314 314 311 316 320 319 322 328 333 318 312 322 329 327 325 320 309 302 293 283 273 262 255 247 244 249 253 252 254 265 281 297 308 310 300 297 326 351 246 272 294 297 317 346 346 351 76 74 60 34 360 329 253 163 150 119
325 326 327 326 325 322 320 319 318 316 308 293 282 277 274 274 274 269 263 258 261 272 280 290 294 297 300 304 308 307 308 318 321 317 318 323 327 325 322 322 323 324 329 329 322 322 323 305 305 304 292 276 261 253 244 237 235 238 242 244 251 266 281 307 312 317 334 331 312 288 307 311 309 339 357 335 285 88 86 73 31 6 354 344 140 131 115
327 328 328 327 326 324 322 321 319 314 307 292 281 276 273 275 274 266 260 255 268 282 273 258 271 295 309 310 308 307 312 325 326 317 315 324 331 323 318 323 328 332 335 330 317 317 320 298 303 309 306 310 304 282 255 230 219 223 230 235 243 253 265 303 312 313 332 324 308 298 303 343 349 346 338 322 322 83 86 76 38 3 356 356 9 78 86
329 329 328 328 328 327 326 321 316 311 305 294 284 277 274 275 272 265 259 256 263 277 248 245 271 291 302 303 302 307 316 324 316 313 316 324 328 329 330 332 335 341 342 332 316 322 305 285 297 308 305 324 327 314 312 303 229 207 210 217 231 241 248 279 282 276 305 308 308 306 264 43 350 342 334 324 330 49 87 69 35 350 348 1 12 33 43
330 330 330 331 332 331 326 319 315 311 306 297 286 281 278 272 266 265 261 251 243 252 262 274 289 292 291 297 305 309 299 291 308 311 303 313 320 327 333 336 342 348 345 335 323 340 315 285 294 297 294 321 318 314 330 329 318 232 200 203 220 235 236 255 256 258 282 269 276 306 217 10 338 337 337 325 322 14 81 70 31 329 336 4 20 30 33
333 333 333 334 333 329 324 318 317 315 310 302 289 282 278 270 267 267 259 246 238 254 269 279 287 282 276 290 302 303 303 309 314 304 291 298 315 329 331 335 346 352 350 351 352 329 324 304 304 306 310 330 320 320 339 335 332 336 295 189 197 223 222 240 249 260 275 254 258 294 242 7 337 336 349 339 329 39 72 71 283 304 333 14 27 31 32
335 335 335 334 330 326 322 319 320 321 314 303 291 286 283 274 269 268 258 247 238 248 266 276 280 277 278 287 292 294 300 302 297 302 307 301 326 330 325 324 355 347 346 353 345 336 333 321 330 324 317 343 340 329 331 329 326 330 326 282 191 195 197 229 233 254 284 265 281 314 346 358 341 343 7 7 3 100 73 329 280 327 359 21 24 26 32
338 336 335 332 327 325 324 320 319 318 310 301 291 286 287 280 270 266 261 252 246 255 271 282 283 277 278 285 287 290 297 298 294 302 299 292 319 328 323 332 5 342 334 341 343 24 9 326 336 343 325 337 330 313 329 325 313 319 326 315 267 180 186 243 226 239 280 263 327 27 171 337 343 352 18 24 33 120 89 356 10 20 22 22 18 19 23
339 337 334 332 328 327 326 321 318 314 304 296 286 282 286 286 275 268 264 257 250 258 274 291 288 277 276 278 281 282 283 283 284 290 289 291 308 319 310 348 351 333 298 339 338 38 47 319 326 339 313 310 310 316 338 327 312 326 335 321 330 32 8 261 247 320 324 274 23 56 210 316 357 7 23 37 56 77 64 43 30 26 26 23 17 16 19
340 338 336 334 333 331 327 321 317 311 301 293 282 277 282 286 282 281 278 261 248 251 266 281 285 282 279 276 275 272 270 272 273 276 283 289 294 294 296 337 1 337 323 340 314 254 355 311 304 323 312 308 327 324 325 314 314 344 345 328 340 352 333 280 233 306 333 286 244 254 277 344 12 16 13 28 49 57 53 47 33 24 26 25 17 12 16
342 341 339 339 338 337 333 330 325 316 306 296 279 271 276 280 283 289 284 260 251 262 280 291 293 296 298 297 292 284 282 280 271 266 267 274 283 289 298 335 9 326 328 348 318 274 313 306 297 309 307 322 333 324 327 330 328 345 346 326 314 336 345 341 280 296 335 293 233 220 354 350 357 4 6 16 36 48 49 45 32 22 24 23 17 14 17
343 343 342 343 345 345 345 346 342 332 323 312 290 274 270 269 274 281 266 241 248 273 296 298 286 288 301 309 310 302 292 281 270 266 257 251 263 281 296 317 326 308 317 339 334 316 312 311 302 294 301 333 342 331 333 336 328 342 347 325 309 342 355 350 314 313 348 332 304 5 6 348 340 343 356 13 33 46 47 43 33 25 24 21 16 15 17
345 345 346 348 349 351 354 355 350 343 343 347 349 341 292 271 273 266 253 242 250 274 303 296 287 295 309 311 308 302 295 285 275 268 252 243 253 270 286 304 315 309 312 328 329 316 306 300 300 306 314 345 14 350 316 309 308 322 330 307 300 328 337 334 320 318 320 308 316 321 322 322 316 314 336 26 51 52 44 39 33 25 22 21 17 14 15
347 348 350 351 351 354 358 357 355 358 12 30 45 61 65 35 343 273 265 274 278 274 268 280 302 323 326 315 310 305 296 290 282 268 257 254 257 264 278 293 302 303 311 320 320 315 311 304 301 306 309 341 2 333 289 295 302 300 294 295 302 308 312 312 313 314 308 303 317 320 312 312 322 335 1 31 47 47 41 37 30 21 17 15 13 10 9
350 351 351 350 351 358 4 6 13 30 42 50 59 62 55 37 355 312 297 290 287 279 249 274 307 321 320 316 324 325 300 278 276 268 262 264 266 268 279 291 297 308 322 327 324 323 318 311 315 310 316 343 350 328 291 300 302 289 285 290 290 292 297 297 294 299 294 292 333 359 350 302 328 358 6 9 10 17 27 31 30 29 23 13 5 1 359
352 353 352 351 358 10 16 22 36 46 46 45 45 40 38 27 357 336 318 296 280 276 284 294 305 315 322 331 344 348 338 300 288 277 265 270 278 280 287 296 302 314 326 328 329 331 319 317 324 316 325 350 354 323 307 313 299 272 268 270 269 284 321 326 313 310 305 306 323 339 338 306 314 340 346 347 348 358 10 15 17 18 12 3 357 353 350
353 354 353 357 11 26 30 35 46 52 51 45 33 24 21 4 351 348 340 324 301 284 295 306 310 317 327 337 346 356 0 346 322 306 286 278 277 275 282 290 298 310 319 324 332 326 310 317 316 306 334 1 352 306 312 319 291 270 284 290 296 304 309 310 308 307 306 309 316 322 319 310 314 324 325 322 323 327 330 331 333 340 347 351 352 352 356
354 356 357 6 25 37 39 44 50 53 56 46 22 7 13 350 341 343 346 341 324 301 310 318 311 314 327 333 337 346 350 343 329 321 309 293 282 279 279 279 282 292 305 318 327 316 313 322 314 303 336 354 346 306 304 312 291 277 280 286 292 294 295 296 296 294 295 299 301 303 303 302 305 309 306 303 305 308 307 309 316 328 335 341 346 351 356
354 358 1 14 33 40 42 50 52 52 55 45 17 355 0 343 325 329 336 336 327 319 319 302 288 301 322 338 339 338 340 341 333 325 319 300 280 278 278 275 279 288 291 291 298 304 302 297 294 298 321 336 340 308 280 295 294 282 283 286 288 288 287 287 286 285 285 289 292 293 290 290 294 297 293 289 292 298 299 298 301 308 312 320 327 328 331
354 356 1 18 34 38 41 44 43 44 52 51 36 19 12 356 334 329 329 325 323 333 333 316 311 308 315 331 343 348 347 345 334 331 333 325 290 274 275 277 277 280 286 283 285 293 287 277 281 289 298 309 317 298 285 286 262 275 287 294 295 291 287 283 280 279 278 278 281 286 283 278 276 279 281 281 283 286 290 293 293 294 299 308 313 316 322
353 352 355 11 26 33 36 35 31 30 34 38 34 21 11 4 357 354 355 357 7 14 14 349 349 348 308 319 342 2 13 23 16 354 350 355 351 310 288 293 280 270 280 277 250 261 287 288 289 291 291 294 290 269 272 260 261 276 287 292 292 288 283 278 274 271 269 268 264 261 264 265 264 262 268 274 277 277 280 288 294 297 299 303 306 311 319
354 352 350 357 10 20 28 29 25 20 19 19 4 350 352 359 4 5 19 47 32 23 38 40 1 316 307 299 325 8 15 23 27 13 8 14 20 35 86 46 21 259 254 247 224 265 294 300 302 302 302 294 269 264 262 256 267 280 289 291 291 288 281 274 270 264 259 258 255 252 254 258 260 258 259 262 269 273 273 280 293 301 303 303 305 309 313
355 353 347 347 352 360 10 15 14 14 17 2 293 308 328 343 354 0 20 42 31 12 35 36 344 301 332 310 320 5 3 358 0 9 13 34 36 56 120 106 50 93 205 225 212 254 295 302 306 305 311 319 281 236 249 267 282 297 305 309 313 309 286 263 261 261 256 249 246 246 249 252 253 253 253 254 260 267 269 274 284 292 296 299 303 307 309
348 348 344 343 339 329 332 348 357 3 358 324 297 302 312 319 330 347 17 40 41 28 349 339 277 285 357 327 297 347 351 347 346 353 343 344 22 42 116 127 61 148 207 209 203 212 227 229 271 310 334 352 271 262 278 293 309 325 332 337 349 358 355 323 285 271 259 247 240 239 239 241 243 245 246 247 250 254 259 263 268 274 282 289 295 300 302
346 347 345 345 342 331 329 345 349 346 337 322 311 306 301 298 318 341 351 24 35 23 339 318 283 297 329 265 286 332 348 356 4 357 335 306 324 305 267 301 327 289 245 224 248 320 167 159 77 341 268 267 287 301 320 336 346 350 352 358 8 15 17 17 9 310 247 236 234 232 230 232 236 238 238 239 241 244 249 251 253 258 266 273 281 287 290
347 351 349 351 353 348 342 340 337 334 332 330 327 319 300 287 334 333 299 323 12 339 290 229 263 283 259 243 315 342 355 348 339 350 8 327 316 261 248 305 312 298 285 306 354 2 111 130 64 324 271 315 344 358 6 8 7 6 7 13 18 20 20 24 26 20 322 235 225 222 221 223 227 230 231 231 232 236 239 242 246 251 255 260 267 272 275
353 359 357 357 354 333 324 329 331 329 329 332 338 337 309 226 320 288 195 164 160 291 247 215 304 313 260 232 315 352 7 349 326 348 9 354 338 249 218 248 280 301 324 9 2 3 19 67 6 341 330 358 12 19 19 17 16 16 17 21 24 25 26 28 30 30 30 28 222 218 218 217 219 223 226 226 227 231 234 237 242 245 248 253 256 256 260
359 354 348 340 325 314 315 321 323 322 320 319 321 308 247 200 213 280 190 159 155 274 236 259 311 314 285 245 274 340 4 353 318 288 324 323 289 261 259 226 277 347 32 22 355 5 41 24 346 1 10 10 17 23 23 23 24 23 24 26 29 31 31 33 35 40 45 50 61 130 200 213 217 220 221 220 221 225 230 235 239 242 245 249 249 248 254
345 333 320 307 302 306 310 312 313 311 306 288 269 282 273 176 116 318 288 266 39 331 286 291 300 290 274 277 272 275 321 338 314 273 291 273 233 240 226 160 183 12 49 17 346 4 48 15 351 10 8 6 12 20 25 27 27 27 29 32 34 35 35 35 37 42 47 51 55 61 70 89 158 209 221 224 225 228 231 235 240 244 244 242 242 246 246
328 318 312 307 301 297 298 300 303 300 292 278 272 303 312 7 31 341 315 21 29 346 283 266 297 312 305 293 284 277 295 349 1 300 289 243 220 237 237 148 157 64 65 49 9 24 17 356 9 13 357 3 15 24 28 28 29 31 34 36 38 40 40 37 36 39 45 49 52 55 60 65 67 70 86 138 182 205 223 234 238 237 235 235 237 233 204
318 313 315 316 307 290 281 289 295 278 263 300 354 358 334 2 32 357 338 21 16 349 302 269 310 326 322 300 288 285 275 244 208 226 249 236 225 254 302 42 48 51 64 76 60 37 17 6 19 3 355 5 23 33 35 35 34 36 38 41 43 44 45 43 41 41 44 49 52 54 57 59 59 61 67 73 80 92 105 115 121 126 142 174 187 173 148
321 315 315 315 301 276 257 298 304 303 337 338 343 355 358 5 17 9 5 11 357 337 329 333 339 339 326 307 300 293 272 237 209 211 265 342 14 357 1 27 33 43 54 44 31 35 34 20 2 359 4 16 27 34 38 42 42 40 41 44 46 47 48 49 48 45 46 49 52 53 56 57 56 58 61 63 65 72 77 76 77 82 87 95 108 114 110
330 317 313 308 281 247 218 301 306 327 5 359 355 356 0 7 13 11 6 353 335 331 344 349 342 332 330 325 311 300 319 311 185 196 321 353 48 47 14 17 19 18 39 37 13 11 37 13 354 358 14 28 34 35 38 44 47 47 47 46 47 50 51 50 51 50 50 51 52 53 54 56 56 56 58 59 61 65 68 68 69 74 76 78 85 91 91
327 314 314 309 274 256 243 258 303 316 19 47 27 359 353 14 27 17 1 342 328 329 345 345 328 315 339 344 322 329 358 7 33 349 327 336 78 58 37 52 28 12 25 33 3 9 30 359 344 358 22 36 39 38 38 42 47 50 50 47 47 50 52 52 53 53 53 54 56 56 56 57 57 56 57 59 61 63 65 65 65 68 70 72 75 79 81
316 313 318 314 295 288 305 353 10 24 35 40 29 4 356 13 23 15 357 339 327 326 337 338 326 316 14 2 336 6 18 20 30 1 347 358 84 53 33 59 47 17 16 2 345 351 352 329 338 359 23 36 38 36 38 42 45 45 47 48 48 50 53 55 56 56 54 55 57 59 58 58 58 57 57 59 60 60 61 63 63 62 63 66 71 74 75
308 313 319 294 273 9 358 345 5 39 41 32 19 2 359 12 20 11 355 341 334 338 355 359 351 351 12 358 358 42 30 13 13 7 357 2 56 34 18 33 32 15 23 8 344 330 332 342 351 4 20 29 32 32 34 38 41 41 42 45 47 51 56 58 58 59 59 58 58 60 60 60 60 59 59 60 61 60 60 61 63 62 59 60 63 66 68
298 303 327 319 334 28 6 353 0 32 40 29 18 4 359 10 21 12 356 344 340 350 19 26 16 6 354 347 356 52 39 13 11 10 358 11 35 34 20 20 3 351 3 357 317 327 347 358 6 16 22 25 28 29 28 31 37 40 42 44 45 49 57 61 61 62 65 64 64 65 65 64 64 64 64 64 65 64 63 62 62 61 59 58 59 61 63
303 260 36 8 8 14 5 0 4 12 16 23 21 2 352 7 20 10 355 345 342 347 16 38 31 24 16 355 345 34 48 29 36 50 33 33 34 23 24 30 4 341 342 335 335 354 6 9 14 21 25 25 26 28 27 28 32 36 40 43 45 46 50 56 61 65 68 69 71 71 71 70 69 69 69 69 69 67 65 65 65 64 63 62 62 61 61
315 271 206 106 79 32 2 17 27 8 0 18 20 359 351 8 17 7 0 359 353 349 10 46 35 19 22 13 353 6 26 26 42 59 50 43 30 14 19 21 8 15 62 58 28 21 25 25 21 20 20 20 22 25 27 28 30 32 35 38 41 44 47 49 50 53 60 69 74 75 74 75 75 74 74 75 74 71 69 68 67 66 66 66 66 65 64
323 324 326 344 28 64 64 44 29 13 9 25 19 353 343 1 15 12 16 20 10 359 11 35 35 25 28 20 9 7 12 16 38 59 53 46 40 26 15 7 8 16 30 43 41 32 31 31 27 21 16 15 17 20 21 24 29 32 33 34 37 41 44 47 48 49 50 55 62 68 70 72 76 78 78 78 78 77 75 73 71 70 70 69 68 67 67